Location: ????????
(37.6846°N, 24.0673°E)
Time: 15:01:51
(UTC+00:00)

Meteor 2-9 - Pass Details

Date: 14 July 2020
Orbit: 803 x 878 km, 81.3° (Epoch: 04 August)

Event Time Altitude Azimuth Distance (km) Brightness Sun altitude
Exits shadow 00:19:52 69° 247° (WSW) 859 4.5 -25.3°
Maximum altitude 00:20:14 72° 280° (W) 845 4.5 -25.2°
Drops below altitude 10° 00:25:38 10° 5° (N) 2,399 7.9 -24.7°
Sets 00:28:03 0° 7° (N) 3,342 8.9 -24.5°
